This is the latest recevied weather packets stored in our database for station/object KC1BRV. If no packets are shown the sender has not sent any weather packets the latest 10 day(s).
| Time | Temp. | Humidity | Pressure | Rain* | Wind** | Luminosity | Snow |
|---|---|---|---|---|---|---|---|
| 1777302579 | 17.78° C | 39% | 1025.2 hPa | 0 mm | - | 688 W/m² | - |
| 1777302278 | 17.78° C | 41% | 1025.2 hPa | 0 mm | - | 681 W/m² | - |
| 1777301975 | 17.22° C | 41% | 1025.2 hPa | 0 mm | - | 671 W/m² | - |
| 1777301673 | 17.22° C | 42% | 1025.2 hPa | 0 mm | - | 663 W/m² | - |
| 1777301369 | 17.22° C | 41% | 1025.2 hPa | 0 mm | - | 652 W/m² | - |
| 1777301065 | 16.67° C | 41% | 1025.3 hPa | 0 mm | - | 644 W/m² | - |
| 1777300763 | 16.67° C | 43% | 1025.2 hPa | 0 mm | - | 631 W/m² | - |
| 1777300461 | 16.67° C | 42% | 1025.3 hPa | 0 mm | - | 624 W/m² | - |
| 1777300158 | 16.67° C | 41% | 1025 hPa | 0 mm | - | 613 W/m² | - |
| 1777299854 | 16.67° C | 40% | 1025.2 hPa | 0 mm | - | 604 W/m² | - |
| 1777299552 | 16.67° C | 41% | 1025.2 hPa | 0 mm | - | 285 W/m² | - |
| 1777299250 | 16.11° C | 43% | 1025.1 hPa | 0 mm | - | 366 W/m² | - |
| 1777298946 | 15.56° C | 43% | 1025.2 hPa | 0 mm | - | 429 W/m² | - |
| 1777298638 | 15.56° C | 43% | 1025.1 hPa | 0 mm | - | 157 W/m² | - |
| 1777298335 | 15° C | 45% | 1025.1 hPa | 0 mm | - | 270 W/m² | - |
| 1777298031 | 15.56° C | 43% | 1025.2 hPa | 0 mm | - | 270 W/m² | - |
| 1777297726 | 15° C | 42% | 1025 hPa | 0 mm | - | 265 W/m² | - |
| 1777297424 | 15° C | 43% | 1024.9 hPa | 0 mm | - | 291 W/m² | - |
| 1777297121 | 15.56° C | 43% | 1025 hPa | 0 mm | - | 372 W/m² | - |
| 1777296818 | 15° C | 43% | 1024.8 hPa | 0 mm | - | 367 W/m² | - |
| 1777296514 | 15° C | 45% | 1024.8 hPa | 0 mm | - | 259 W/m² | - |
| 1777296210 | 15° C | 43% | 1024.8 hPa | 0 mm | - | 96 W/m² | - |
| 1777295905 | 14.44° C | 46% | 1024.8 hPa | 0 mm | - | 200 W/m² | - |
| 1777295603 | 13.89° C | 46% | 1024.9 hPa | 0 mm | - | 228 W/m² | - |
| 1777295300 | 13.33° C | 46% | 1024.7 hPa | 0 mm | - | 104 W/m² | - |
* Rain latest hour (hover to see other rain measurements)
** Current wind speed in m/s (hover to see current wind gust speed)